#timestamp,LO_Frequency,Hit,StdDev 
1634655615.6,286046997.6,N
1634655635.4,286046995.2,Y
1634655655.2,286046997.2,P
1634655675.1,286046996.9,P
1634655676.0,286046996.9,P
1634655695.8,286046997.1,Y
1634655715.6,286047001.2,P
1634655735.5,286047000.8,N
1634655755.3,286047000.7,N
1634655775.1,286047002.4,N
1634655795.9,286047000.7,N
1634655815.7,286047000.6,N
1634655835.5,286046998.4,N
1634655855.4,286046998.2,N
1634655875.2,286046998.9,N
1634655895.0,286046996.7,N
1634655895.9,286046996.7,N
1634655915.8,286046997.5,N
1634655935.6,286046997.1,N
1634655955.4,286046996.9,N
1634655975.3,286046996.5,N
1634655995.1,286046997.2,N
1634655996.0,286046997.2,N
1634656015.8,286046996.5,N
1634656035.7,286046995.6,N
1634656055.5,286046996.4,N
1634656075.3,286046993.4,Y
1634656095.2,286046996.8,P
1634656115.9,286046997.5,P
1634656135.7,286046997.8,P
1634656155.6,286046995.0,Y
1634656175.4,286047000.3,P
1634656195.2,286046999.4,N
1634656215.1,286046996.9,N
1634656216.0,286046996.9,N
1634656235.8,286046996.9,N
1634656255.6,286046994.9,Y
1634656275.5,286046997.1,P
1634656295.3,286046997.2,P
1634656315.1,286046997.1,P
1634656335.9,286046995.2,Y
1634656355.7,286047001.2,P
1634656375.5,286047001.0,N
1634656395.4,286047001.1,N
1634656415.2,286047000.7,N
1634656435.0,286046998.9,N
1634656435.9,286046998.9,N
1634656455.8,286046999.1,N
1634656475.6,286046998.1,N
1634656495.4,286046998.3,N
1634656515.3,286046997.0,N
1634656535.1,286046998.0,N
1634656555.8,286046995.6,Y
1634656575.7,286046995.2,P
1634656595.5,286046997.9,N
1634656615.3,286046995.1,N
1634656635.2,286046998.0,N
1634656655.0,286046994.1,Y
1634656655.9,286046994.1,P
1634656675.7,286046997.7,N
1634656695.6,286046998.4,N
1634656715.4,286046998.8,N
1634656735.2,286046999.2,N
1634656755.1,286046997.7,N
1634656756.0,286046997.7,N
1634656775.8,286046997.0,N
1634656795.6,286046994.9,Y
1634656815.5,286046998.6,P
1634656835.3,286046998.7,N
1634656855.1,286047000.0,N
1634656875.9,286046998.2,N
1634656895.7,286047000.6,N
1634656915.5,286046999.0,N
1634656935.4,286046999.4,N
1634656955.2,286046999.1,N
1634656975.1,286046996.6,Y
1634656976.0,286046996.6,P
1634656995.8,286046997.4,N
1634657015.6,286046997.8,N
1634657035.5,286046997.9,N
1634657055.3,286046997.4,Y
1634657075.1,286046999.2,P
1634657095.9,286046998.8,N
1634657115.7,286047001.1,N
1634657135.5,286047000.5,N
1634657155.4,286046998.2,N
1634657175.2,286047001.1,N
1634657195.0,286046998.1,N
1634657195.9,286046998.1,N
1634657215.8,286047001.0,N
1634657235.6,286047000.3,N
1634657255.4,286047000.2,N
1634657275.3,286047000.9,N
1634657295.1,286047001.0,N
1634657296.0,286047001.0,N
1634657315.8,286047000.0,N
1634657335.7,286046999.7,N
1634657355.5,286046998.1,N
1634657375.3,286046999.7,N
1634657395.2,286047000.2,N
1634657415.9,286047002.2,N
1634657435.7,286047000.2,N
1634657455.6,286047000.5,N
1634657475.4,286047000.9,N
1634657495.2,286046999.7,N
1634657515.1,286047000.5,N
1634657516.0,286047000.5,N
1634657535.8,286046999.8,N
1634657555.6,286047002.8,N
1634657575.5,286047001.0,N
1634657595.3,286046999.9,N
1634657615.1,286046998.2,N
1634657635.9,286046998.5,N
1634657655.7,286046998.7,N
1634657675.5,286046998.1,N
1634657695.4,286047000.9,N
1634657715.2,286047000.5,N
1634657735.0,286047000.3,N
1634657735.9,286047000.3,N
1634657755.8,286047000.8,N
1634657775.6,286047000.0,N
1634657795.4,286047000.6,N
1634657815.3,286047001.1,N
1634657835.1,286047000.1,N
1634657836.0,286047000.1,N
1634657855.8,286047000.0,N
1634657875.7,286046999.9,N
1634657895.5,286046996.6,Y
1634657915.3,286046997.0,P
1634657935.2,286047001.1,N
1634657955.9,286046998.8,N
1634657975.7,286046998.5,N
1634657995.6,286046998.9,N
1634658015.4,286047000.8,N
1634658035.2,286047002.6,N
1634658055.1,286047002.8,N
1634658056.0,286047002.8,N
1634658075.8,286047001.9,N
1634658095.6,286047002.8,N
1634658115.5,286046999.7,N
1634658135.3,286047001.1,N
1634658155.1,286047000.6,N
1634658175.9,286047000.6,N
1634658195.7,286047000.5,N
1634658215.5,286047002.4,N
1634658235.4,286047002.6,N
1634658255.2,286046999.8,N
1634658275.0,286047000.3,N
1634658275.9,286047000.3,N
1634658295.8,286047000.2,N
1634658315.6,286047000.8,N
1634658335.4,286047002.2,N
1634658355.3,286047000.6,N
1634658375.1,286047000.7,N
1634658376.0,286047000.7,N
1634658395.8,286047000.2,N
1634658415.7,286047000.2,N
1634658435.5,286047002.3,N
1634658455.3,286047002.4,N
1634658475.2,286046999.8,N
1634658495.9,286047000.1,N
1634658515.7,286046999.9,N
1634658535.6,286047002.1,N
1634658555.4,286047002.3,N
1634658575.2,286047002.4,N
1634658595.1,286047004.3,Y
1634658596.0,286047004.3,P
1634658615.8,286047002.7,N
1634658635.6,286046999.7,N
1634658655.5,286047000.1,N
1634658675.3,286047002.7,N
1634658695.1,286047002.8,N
1634658715.9,286047001.7,N
1634658735.7,286046999.7,N
1634658755.5,286047002.6,N
1634658775.4,286047001.7,N
1634658795.2,286047002.2,N
1634658815.0,286047002.0,N
1634658815.9,286047002.0,N
1634658835.8,286047000.2,N
1634658855.6,286047000.3,N
1634658875.4,286047002.8,N
1634658895.3,286047002.4,N
1634658915.1,286046999.7,N
1634658916.0,286046999.7,N
1634658935.8,286047003.2,N
1634658955.7,286047004.2,Y
1634658975.5,286047002.3,P
1634658995.3,286047001.9,P
1634659015.2,286047001.3,P
1634659035.9,286047001.6,Y
1634659055.7,286047000.0,P
1634659075.6,286047002.4,N
1634659095.4,286047002.1,N
1634659115.2,286047003.1,Y
1634659135.1,286047002.6,P
1634659136.0,286047002.6,P
1634659155.8,286047001.4,N
1634659175.6,286047001.5,N
1634659195.5,286047003.1,Y
